Regional Weather Roundup
Issued by NWS Wakefield, VA

Home | Current Version | Previous Version | Text Only | Print | Product List | Glossary Off
Versions: 1 2 3 4 5 6 7 8 9 10 11 12 13 14 15 16 17 18 19 20 21 22 23 24 25 26 27 28 29 30 31 32 33 34 35 36 37 38 39 40 41 42 43 44 45 46 47 48 49 50

000
ASUS41 KAKQ 060615
RWRAKQ

REGIONAL WEATHER ROUNDUP
NATIONAL WEATHER SERVICE WAKEFIELD VA
200 AM EDT MON JUL 06 2015

Note: "fair" indicates few or no clouds below 12,000 feet with no
significant weather and/or obstructions to visibility. * = Denotes
station may not report precipitation (e.g., rain,snow,etc.),
thunder or fog.

VAZ042-051-052>054-056-060700-
NORTHERN VIRGINIA

CITY           SKY/WX    TMP DP  RH WIND       PRES   REMARKS
WASH NATIONAL  LGT RAIN  77  72  84 S3        30.12S
DULLES         CLOUDY    72  71  97 CALM      30.12S
FORT BELVOIR   CLOUDY    72  70  95 CALM      30.11S FOG
QUANTICO       CLOUDY    76  71  85 S7        30.11F
FREDERICKSBRG* CLOUDY    74  74 100 CALM      30.10S
STAFFORD*      CLOUDY    72  70  94 CALM      30.15S FOG
WARRENTON      CLOUDY    72  72 100 CALM      30.11S FOG
CULPEPER*      CLOUDY    70  70  99 CALM      30.12S FOG
MANASSAS*      CLOUDY    73  73 100 CALM        N/A
LEESBURG*      DRIZZLE   73  73 100 S7        30.12F
WINCHESTER     RAIN      72  70  94 CALM      30.12S
FRONT ROYAL*   MOCLDY    68  68 100 CALM      30.10F
LURAY*         MOCLDY    72  72 100 CALM      30.11F FOG
$$

VAZ048-049-060>072-079>083-060700-
CENTRAL AND SOUTH CENTRAL VIRGINIA

CITY           SKY/WX    TMP DP  RH WIND       PRES   REMARKS
RICHMOND       LGT RAIN  73  70  90 S5        30.12R
CHESTERFIELD*  NOT AVBL
PETERSBURG*    LGT RAIN  72  72 100 CALM      30.10F
HANOVER        MOCLDY    72  71  97 SE3       30.13R
TAPPAHANNOCK*  MOCLDY    74  71  92 SE3       30.12S
QUINTON*       NOT AVBL
CHARLOTTSVILLE CLOUDY    71  69  93 CALM      30.11S
GORDONSVILLE*  CLOUDY    70  70 100 CALM      30.10F FOG
ORANGE*        LGT RAIN  72  70  94 CALM      30.13S
LOUISA*        RAIN      72  70  94 SE3       30.11S
BUMPASS*       FAIR      71  71  98 CALM      30.11F
FARMVILLE*     CLOUDY    71  71 100 CALM      30.09S
CREWE*         CLOUDY    70  69  95 CALM      30.10S
FORT PICKETT*  CLOUDY    70  69  98 SE8       30.10F
CHASE CITY*    CLOUDY    72  72 100 E3        30.09F
CLARKSVILLE*   MOCLDY    70  70 100 E6        30.08F
SOUTH HILL*    CLOUDY    69  68  99 CALM      30.16S
LAWRENCEVILLE* NOT AVBL
EMPORIA*         N/A     70  70 100 CALM      30.11F
$$

VAZ088>098-060700-
SOUTHEAST VIRGINIA

CITY           SKY/WX    TMP DP  RH WIND       PRES   REMARKS
NORFOLK        CLOUDY    74  70  87 S3        30.10F
VIRGINIA BEACH CLOUDY    76  69  79 CALM      30.10F
NORFOLK NAVAL  TSTM      72  70  93 N5        30.13R FOG
WEST POINT*    CLOUDY    76  73  90 S3        30.13S
SALUDA*        FAIR      74  72  96 SW5       30.12R
NEWPORT NEWS   LGT RAIN  73  71  93 VRB5      30.12R
LANGLEY AFB    LGT RAIN  72  70  94 SW7       30.11R
FORT EUSTIS    LGT RAIN  73 N/A N/A VRB3      30.10R
WILLIAMSBURG*  CLOUDY    75  73  94 CALM      30.13F
HR EXEC AP*    CLOUDY    72  70  94 CALM      30.14S
FRANKLIN*      CLOUDY    71  70  98 CALM      30.12F
WAKEFIELD      LGT RAIN  72  70  93 CALM      30.11F
$$

VAZ020-022-025-037-045-060700-
WEST CENTRAL AND SOUTHWEST VIRGINIA

CITY           SKY/WX    TMP DP  RH WIND       PRES   REMARKS
STAUNTON*      CLOUDY    73  71  94 CALM      30.13S FOG
WAYNESBORO*    MOCLDY    68  68  99 S6        30.12F
HOT SPRINGS VA DRZL/FOG  64  64 100 E7        30.19F VSB<1/4
LYNCHBURG      CLOUDY    69  69 100 E3        30.11F
DANVILLE       PTCLDY    70  68  93 E3        30.08F
SOUTH BOSTON*  CLOUDY    70  69  95 MISG      30.09S
MARTINSVILLE   CLOUDY    69  69 100 CALM      30.10S
ROANOKE        CLOUDY    70  69  97 SE8       30.10F
BLACKSBURG     MOCLDY    67  67 100 SE5       30.15S
DUBLIN*        CLOUDY    66  66 100 SE3       30.12F FOG
MARION*        CLOUDY    66  65  95 CALM      30.15F
HILLSVILLE*    PTCLDY    64  64  98 CALM      30.12S FOG
RICHLANDS*     CLOUDY    65  65 100 CALM      30.12F
WISE*          CLOUDY    64  64 100 SW3       30.14S FOG
ABINGDON*      CLOUDY    68  68 100 W8        30.11S FOG
$$

MDZ021>025-VAZ099-100-060700-
SOUTHERN MARYLAND AND THE DELMARVA PENINSULA

CITY           SKY/WX    TMP DP  RH WIND       PRES   REMARKS
PATUXENT RIVER CLOUDY    76  71  85 SE9       30.10F
BAY BRIDGE APT   N/A     75  72  88 SE8       30.12S
LEONARDTOWN    CLOUDY    73  70  88 CALM      30.12F
DOVER          CLOUDY    72  72 100 S3        30.11F
GEORGETOWN     CLOUDY    71  70  96 CALM      30.13F
EASTON         CLOUDY   N/A N/A N/A SE3       30.16S
CAMBRIDGE      CLOUDY    73  70  88 E3        30.11F
SALISBURY      CLOUDY    71  70  96 SE3       30.12F
OCEAN CITY     CLOUDY    75  72  90 SE6       30.12F
WALLOPS ISLAND LGT RAIN  74  72  93 S14       30.13R
ACCOMACK*      TSTM      70  70 100 SE3       30.12S
$$

NCZ012>017-030>032-060700-
NORTH CENTRAL AND EASTERN NORTH CAROLINA

CITY           SKY/WX    TMP DP  RH WIND       PRES   REMARKS
ROANOKE RAPIDS FAIR      68  68 100 CALM      30.11S
RALEIGH        MOCLDY    71  69  93 SE5       30.09F
ELIZABETH CITY MOCLDY    74  71  91 N3        30.11F FOG
AHOSKIE*       CLOUDY   N/A N/A N/A CALM      30.12R
EDENTON*       MOCLDY    77  73  85 NW3       30.11F
CURRITUCK*     MOCLDY    73  69  87 CALM      30.12F
KILL DEVIL HLS MOCLDY    78  73  86 SW7       30.11S
MANTEO         MOCLDY    78  74  90 SW9       30.12S
CAPE HATTERAS  PTCLDY    77  75  93 SW7       30.14R
TARBORO*         N/A     72  70  93 CALM      30.12S
GOLDSBORO      NOT AVBL
WASHINGTON     CLOUDY    76  73  88 SW5       30.12R
GREENVILLE     MOCLDY    75  73  94 CALM      30.13S
NEW BERN       MOCLDY    76  73  91 S5        30.13S
WILMINGTON     PTCLDY    78  75  90 S7        30.12R
$$

VAZ048-060700-
ELSEWHERE

CITY           SKY/WX    TMP DP  RH WIND       PRES   REMARKS
HARRISBURG PA  CLOUDY    70  67  90 SE5       30.13S
BALTIMORE      LGT RAIN  75  71  87 E6        30.12S
ANNAPOLIS      CLOUDY    76  72  87 SE9       30.11S
ANDREWS AFB    CLOUDY    73  72  99 E2        30.12S
PHILADELPHIA   CLOUDY    72  67  84 CALM      30.15S
HENDERSON NC   PTCLDY    69  67  93 E3        30.09F
GREENSBORO     MOCLDY    70  69  97 S7        30.08S
ROCKY MOUNT    MOCLDY    71  69  93 CALM      30.11S
$$

VAZ100-060700-
MARINE

STATION/POSITION TIME  TEMP    WIND        PRES    WAVE   SWELL
                       AIR SEA DIR/SP/G            HT/PER HT/PER
                 (UTC) (F)     (DEG/KT/KT) (MB)    (FT/S) (FT/S)
BRANDYWINE LGT   0500   73 73  150/  7/  7 1020.5F
CAPE MAY NJ      0500   73 79  100/  3/  4 1020.1F
LEWES DE         0500   74 74  150/  5/  7 1020.1F
15NM E FENWICK I 0550   74 74              1020.2R   3/ 6
OCEAN-CITY-INLET 0500   75 75  150/  4/  5 1020.0F
WACHAPREAGUE VA  0500   73 81  180/ 10/ 12 1019.8F
GOOSES REEF MD   0600   76 78  140/ 10/ 12 1020.4F
COVE POINT MD    0500   76     180/ 11/ 13 1020.5F
SOLOMONS ISLAND  0500      81                N/A
BISHOPS HEAD MD  0500   76     120/  9/ 11 1019.6F
PINEY POINT MD   0500          150/ 10/ 11   N/A
CAMBRIDGE MD     0500   74 79  130/  2/  5 1019.9F
LEWISETTA VA     0500   76 80  140/  7/  8 1019.2F
RAPPAHANNOCK LGT 0500          150/  7/  8 1020.1F
STINGRAY PT      0600   77 80  210/  8/ 14 1019.7R   1
YORK RVR RNG VA  0500   78     140/ 10/ 12 1018.7F
YORKTOWN VA      0500   74 80  180/  7/ 10 1018.9F
JAMESTOWN VA     0600   74 82  200/  8/ 10   N/A
DOMINION TERM VA 0500   73     140/  5/  6 1019.2F
KIPTOPEKE VA     0500      82   70/  5/  6   N/A
CHES BAY BRIDGE  0500   75 77  360/  2/  3 1019.3F
CAPE HENRY VA    0500   75     340/  4/  4   N/A
CHESAPEAKE LGHT  0500   75      20/  7/  8 1020.2F
WILLOUBY STN VA  0500   72     120/  6/  8 1020.0F
CAPE HENRY BUOY  0528      78                N/A     2/ 5
1ST LANDING BUOY 0600      78              1019.1F   1/ 3
CAPE CHARLES BUO 0526      76                N/A     2/13   2/13
OFFSHORE WE BUOY 0511      77                N/A     2/ 5   2/ 5
64NM E OF VA BCH 0550   78 77  170/  8/ 10 1019.4F   3/ 8   3/ 8
DUCK PIER NC     0500   80 76  230/ 10/ 15   N/A
44100 DUCK FRF   0524      79                N/A     2/14
44056 DUCK FRF   0511      78                N/A     2/14   2/14
OREGON INLET NC  0500   80 83  210/ 14/ 17 1019.6F
HATTERAS NC      0500   78 80  210/  8/ 10 1019.8F
DIAMOND SHLS NC  0550   80 81  230/ 12/ 14 1020.2R   3/ 5   2/ 7
CAPE LOOKOUT NC  0600   79     210/  7/  9 1020.2R
$$


USA.gov is the U.S. government's official web portal to all federal, state and local government web resources and services.